User: anonymous   Login
Location: Tyler Bend Campground
(35.9875°N, 92.7606°W)
Time: 03:23:07
(UTC-05:00)
Language:

CZ-2C R/B - Orbit

View from above orbital plane
View from above orbital plane
View from above satellite
View from above satellite

Ground track
Ground track

The orbit data is extracted from the following two-line orbital elements,

1 36089U 09061B   15109.71660027  .00000425  00000-0  11818-3 0  9990
2 36089 098.0755 135.2568 0081322 317.1768 177.6025 14.49415161287338
Epoch (UTC): 19 April 2015 17:11:54
Eccentricity: 0.0081322
inclination: 98.0755°
perigee height: 670 km
apogee height: 785 km
right ascension of ascending node: 135.2568°
argument of perigee: 317.1768°
revolutions per day: 14.49415161
mean anomaly at epoch: 177.6025°
orbit number at epoch: 28733

The dashed part of the orbit path shows where the satellite is in the earth's shadow,  

DLR